Montpelier, VT

3:01 AM EDT on October 18, 2017 (GMT -0400)
Knapp State

Weather History for KMPV - December, 2012

Change the Weather History Date:

Saturday, December 22, 2012

  Actual Average Record
Temperature  
Mean Temperature 27 °F 20 °F  
Max Temperature 35 °F 29 °F 58 °F (1949)
Min Temperature 18 °F 12 °F -23 °F (1955)
Degree Days  
Heating Degree Days 38 44  
Month to date heating degree days 740 888  
Since 1 July heating degree days 2527 2734  
Cooling Degree Days 0 0  
Month to date cooling degree days 0  
Year to date cooling degree days 264  
Moisture  
Dew Point 18 °F    
Average Humidity 80    
Maximum Humidity 92    
Minimum Humidity 68    
Precipitation  
Precipitation 0.02 in 0.09 in 1.11 in (1969)
Month to date precipitation 3.28 2.05  
Year to date precipitation 33.76 36.58  
Sea Level Pressure  
Sea Level Pressure 29.47 in    
Wind  
Wind Speed 10 mph (WNW)    
Max Wind Speed 18 mph    
Max Gust Speed 28 mph    
Visibility 4 miles    
Events Snow    
T = Trace of Precipitation, MM = Missing Value Source: NWS Daily Summary

Daily Weather History Graph

Daily Weather History Graph

Search for Another Location

Airport or City:

Trip Planner

Search our weather history database for the weather conditions in past years. The results will help you decide how hot, cold, wet, or windy it might be!

Date:

Astronomy

Dec. 22, 2012 Rise Set
Actual Time 7:23 AM EST 4:15 PM EST
Civil Twilight 6:49 AM EST 4:48 PM EST
Nautical Twilight 6:13 AM EST 5:25 PM EST
Astronomical Twilight 5:37 AM EST 6:00 PM EST
Moon 12:37 PM EST (12/22) 1:58 AM EST (12/22)
Length of Visible Light 9h 58m
Length of Day
8h 51m
Waxing Gibbous, 73% of the Moon is Illuminated
Dec 22
Waxing Gibbous
Dec 28
Full
Jan 4
Last Quarter
Jan 11
New
Jan 18
First Quarter

Hourly Weather History & Observations

Time (EST) Temp. Windchill Dew Point Humidity Pressure Visibility Wind Dir Wind Speed Gust Speed Precip Events Conditions
12:51 AM 34.0 °F 28.0 °F 28.0 °F 79% 29.13 in 10.0 mi South 6.9 mph - N/A   Overcast
1:51 AM 34.0 °F 27.2 °F 28.0 °F 79% 29.14 in 10.0 mi South 8.1 mph - N/A   Overcast
2:51 AM 33.1 °F 26.1 °F 28.9 °F 85% 29.15 in 10.0 mi SSW 8.1 mph - N/A   Mostly Cloudy
3:51 AM 32.0 °F 24.2 °F 28.9 °F 88% 29.15 in 10.0 mi South 9.2 mph - N/A   Overcast
4:51 AM 33.8 °F 27.0 °F 28.4 °F 81% 29.13 in 10.0 mi SSW 8.1 mph - N/A   Overcast
5:51 AM 33.1 °F 26.1 °F 27.0 °F 78% 29.19 in 10.0 mi SSW 8.1 mph - N/A   Overcast
6:51 AM 33.1 °F 26.1 °F 26.1 °F 75% 29.22 in 10.0 mi WSW 8.1 mph - N/A   Overcast
7:51 AM 30.9 °F 22.2 °F 23.0 °F 72% 29.27 in 10.0 mi SW 10.4 mph - N/A   Overcast
8:03 AM 30.2 °F 20.8 °F 24.8 °F 80% 29.25 in 10.0 mi West 11.5 mph 20.7 mph N/A   Overcast
8:51 AM 28.0 °F 20.8 °F 21.9 °F 78% 29.32 in 5.0 mi WNW 6.9 mph - 0.00 in Snow Light Snow
9:08 AM 28.4 °F 19.1 °F 21.2 °F 74% 29.29 in 8.0 mi WNW 10.4 mph 17.3 mph 0.00 in Snow Light Snow
9:51 AM 27.0 °F 18.7 °F 19.0 °F 72% 29.36 in 10.0 mi WNW 8.1 mph 20.7 mph 0.00 in   Overcast
10:51 AM 27.0 °F 18.0 °F 18.0 °F 69% 29.37 in 10.0 mi West 9.2 mph 17.3 mph 0.00 in   Overcast
11:51 AM 25.0 °F 14.8 °F 17.1 °F 72% 29.39 in 10.0 mi West 10.4 mph 19.6 mph N/A   Overcast
12:26 PM 24.8 °F 15.3 °F 17.6 °F 74% 29.35 in 9.0 mi West 9.2 mph 19.6 mph N/A   Overcast
12:35 PM 24.8 °F 15.3 °F 15.8 °F 69% 29.35 in 10.0 mi West 9.2 mph 21.9 mph N/A   Overcast
12:51 PM 25.0 °F 12.6 °F 15.1 °F 66% 29.41 in 10.0 mi West 15.0 mph 24.2 mph N/A   Overcast
1:14 PM 24.8 °F 11.9 °F 15.8 °F 69% 29.37 in 2.5 mi WNW 16.1 mph 27.6 mph 0.00 in Snow Light Snow
1:25 PM 23.0 °F 10.6 °F 15.8 °F 74% 29.38 in 4.0 mi West 13.8 mph 20.7 mph 0.00 in Snow Light Snow
1:51 PM 23.0 °F 13.1 °F 16.0 °F 74% 29.44 in 2.5 mi West 9.2 mph - 0.00 in Snow Light Snow
2:06 PM 21.2 °F 9.5 °F 15.8 °F 80% 29.40 in 3.0 mi West 11.5 mph 19.6 mph 0.00 in Snow Light Snow
2:17 PM 21.2 °F 9.5 °F 15.8 °F 80% 29.40 in 1.8 mi WNW 11.5 mph 19.6 mph 0.00 in Snow Light Snow
2:39 PM 21.2 °F 10.9 °F 15.8 °F 80% 29.42 in 3.0 mi WNW 9.2 mph 17.3 mph 0.00 in Snow Light Snow
2:51 PM 23.0 °F 10.6 °F 14.0 °F 68% 29.47 in 6.0 mi WNW 13.8 mph 21.9 mph 0.00 in Snow Light Snow
3:51 PM 21.0 °F 10.6 °F 15.1 °F 78% 29.51 in 2.5 mi WNW 9.2 mph - 0.00 in Snow Light Snow
4:14 PM 19.4 °F 7.9 °F 15.8 °F 86% 29.47 in 1.5 mi WNW 10.4 mph 17.3 mph 0.00 in Snow Light Snow
4:25 PM 19.4 °F 7.9 °F 15.8 °F 86% 29.48 in 3.0 mi WNW 10.4 mph 17.3 mph 0.00 in Snow Light Snow
4:51 PM 19.9 °F 8.6 °F 14.0 °F 78% 29.55 in 4.0 mi WNW 10.4 mph 17.3 mph 0.00 in Snow Light Snow
5:12 PM 19.4 °F 9.5 °F 12.2 °F 74% 29.50 in 6.0 mi WNW 8.1 mph 18.4 mph 0.00 in Snow Light Snow
5:27 PM 19.4 °F 9.5 °F 14.0 °F 80% 29.51 in 3.0 mi NW 8.1 mph 19.6 mph 0.00 in Snow Light Snow
5:36 PM 19.4 °F 9.5 °F 14.0 °F 80% 29.52 in 2.5 mi WNW 8.1 mph 16.1 mph 0.00 in Snow Light Snow
5:49 PM 19.4 °F 8.6 °F 15.8 °F 86% 29.52 in 1.5 mi WNW 9.2 mph - 0.00 in Snow Light Snow
5:51 PM 19.0 °F 8.2 °F 15.1 °F 85% 29.57 in 1.8 mi WNW 9.2 mph - 0.00 in Snow Light Snow
6:01 PM 19.4 °F 6.6 °F 15.8 °F 86% 29.53 in 2.5 mi WNW 12.7 mph 20.7 mph 0.00 in Snow Light Snow
6:09 PM 19.4 °F 5.5 °F 14.0 °F 80% 29.53 in 4.0 mi WNW 15.0 mph 20.7 mph 0.00 in Snow Light Snow
6:21 PM 19.4 °F 6.0 °F 12.2 °F 74% 29.54 in 5.0 mi WNW 13.8 mph 20.7 mph 0.00 in Snow Light Snow
6:27 PM 19.4 °F 6.0 °F 14.0 °F 80% 29.54 in 2.5 mi WNW 13.8 mph 18.4 mph 0.00 in Snow Light Snow
6:51 PM 19.0 °F 5.0 °F 14.0 °F 81% 29.60 in 4.0 mi WNW 15.0 mph 21.9 mph 0.00 in Snow Light Snow
7:03 PM 19.4 °F 7.2 °F 14.0 °F 80% 29.55 in 2.0 mi NW 11.5 mph 19.6 mph 0.00 in Snow Light Snow
7:35 PM 19.4 °F 7.9 °F 15.8 °F 86% 29.56 in 1.2 mi WNW 10.4 mph 16.1 mph 0.00 in Snow Light Snow
7:46 PM 19.4 °F 11.5 °F 15.8 °F 86% 29.57 in 1.0 mi WNW 5.8 mph 17.3 mph 0.00 in Snow Light Snow
7:51 PM 19.0 °F 10.0 °F 16.0 °F 88% 29.62 in 1.2 mi NW 6.9 mph - 0.00 in Snow Light Snow
7:55 PM 19.4 °F 10.4 °F 15.8 °F 86% 29.57 in 2.0 mi NW 6.9 mph - 0.00 in Snow Light Snow
8:17 PM 19.4 °F 9.5 °F 15.8 °F 86% 29.58 in 1.8 mi NW 8.1 mph 19.6 mph 0.00 in Snow Light Snow
8:36 PM 17.6 °F 5.7 °F 15.8 °F 93% 29.58 in 1.2 mi NW 10.4 mph 17.3 mph 0.00 in Snow Light Snow
8:49 PM 17.6 °F 10.7 °F 15.8 °F 93% 29.59 in 1.0 mi NW 4.6 mph - 0.00 in Snow Light Snow
8:51 PM 17.6 °F 10.7 °F 15.8 °F 93% 29.59 in 1.0 mi NNW 4.6 mph - N/A Snow Light Snow
9:30 PM 19.4 °F - 17.6 °F 93% 29.60 in 0.8 mi Calm Calm - 0.01 in Snow Light Snow
9:44 PM 19.4 °F 9.5 °F 17.6 °F 93% 29.61 in 1.0 mi NW 8.1 mph - 0.02 in Snow Light Snow
9:51 PM 19.4 °F 10.4 °F 15.8 °F 86% 29.61 in 1.2 mi NW 6.9 mph - N/A Snow Light Snow
10:03 PM 19.4 °F 11.5 °F 17.6 °F 93% 29.61 in 1.2 mi NW 5.8 mph - 0.00 in Snow Light Snow
10:10 PM 19.4 °F 6.0 °F 15.8 °F 86% 29.62 in 2.0 mi WNW 13.8 mph 19.6 mph 0.00 in Snow Light Snow
10:25 PM 19.4 °F 7.2 °F 15.8 °F 86% 29.62 in 3.0 mi WNW 11.5 mph 20.7 mph 0.00 in Snow Light Snow
10:34 PM 19.4 °F 4.5 °F 15.8 °F 86% 29.62 in 2.5 mi WNW 17.3 mph 25.3 mph 0.00 in Snow Light Snow
10:41 PM 19.4 °F 5.0 °F 15.8 °F 86% 29.63 in 2.5 mi WNW 16.1 mph 23.0 mph 0.00 in Snow Light Snow
10:51 PM 19.0 °F 5.6 °F 15.1 °F 85% 29.69 in 2.0 mi WNW 13.8 mph 21.9 mph 0.00 in Snow Light Snow
11:14 PM 19.4 °F 5.5 °F 15.8 °F 86% 29.64 in 1.2 mi WNW 15.0 mph 21.9 mph 0.00 in Snow Light Snow
11:30 PM 19.4 °F 5.0 °F 15.8 °F 86% 29.64 in 1.5 mi WNW 16.1 mph 23.0 mph 0.00 in Snow Light Snow
11:51 PM 18.0 °F 2.2 °F 14.0 °F 84% 29.71 in 3.0 mi WNW 18.4 mph 25.3 mph 0.00 in Snow Light Snow